Location: Boiu de Jos
(46.0000°N, 22.6000°E)
Time: 03:48:57
(UTC+00:00)

Daily predictions for brighter satellites

Satellite Brightness Start Highest point End
(mag) Time Altitude Azimuth Time Altitude Azimuth Time Altitude Azimuth
ADEOS II 3.5 00:00:45 10° NE 00:05:18 29° E 00:06:31 26° ESE
Cosmos 1538 Rocket 4.4 00:06:03 54° WNW 00:06:03 54° WNW 00:11:07 10° NNE
Nadezhda 4 Rocket 3.8 00:06:15 73° S 00:06:55 87° E 00:13:04 10° N
Cosmos 1943 Rocket 2.1 00:04:05 10° NNW 00:09:48 86° ENE 00:10:24 72° SE
RESURS DK-1 3.9 00:13:30 28° NNW 00:13:30 28° NNW 00:16:20 10° N
ATLAS 5 CENTAUR R/B 2.7 00:09:18 10° NNW 00:14:05 55° NE 00:20:00 10° SE
SL-16 R/B 3.3 00:13:06 31° SE 00:14:11 33° ESE 00:19:13 10° NE
Cosmos 2056 Rocket 4.1 00:10:46 10° NNW 00:16:06 57° ENE 00:18:24 33° SE
Meteor 1-27 Rocket 3.7 00:18:37 66° SSE 00:19:21 77° E 00:24:58 10° NNE
MOZ.5/SAFIR/RUBIN 5/SL-8 4.4 00:20:50 46° NW 00:20:50 46° NW 00:24:28 10° NNW
CZ-2C R/B 3.0 00:18:46 40° SE 00:20:32 61° ENE 00:25:46 10° N
SL-16 R/B 3.5 00:15:21 11° SE 00:21:00 45° ENE 00:26:53 10° N
GEOS 3 Rocket 4.3 00:18:52 10° ESE 00:24:05 56° NE 00:29:15 10° NNW
Sich 1 3.4 00:21:21 10° N 00:24:45 56° NNW 00:24:45 56° NNW
Cosmos 1624 Rocket 4.2 00:20:53 10° NNW 00:26:05 66° ENE 00:27:51 40° SE
Cosmos 1340 Rocket 3.9 00:26:18 37° E 00:26:18 37° E 00:29:44 10° NNE
GP-B 3.5 00:22:02 10° N 00:26:23 53° E 00:26:38 53° ESE
Okean 1 4.2 00:30:28 40° NNW 00:30:28 40° NNW 00:33:05 10° N
NPP 3.5 00:24:31 10° NNE 00:29:58 88° ESE 00:30:40 69° S
ALOS 4.1 00:26:24 10° NE 00:30:10 24° E 00:31:58 19° SE
USA 215 3.2 00:25:33 10° NE 00:32:08 88° NW 00:34:07 49° SW
Cosmos 2344 4.1 00:23:42 10° NW 00:32:15 64° WSW 00:44:08 10° SSE
Cosmos 1340 3.7 00:34:27 10° N 00:37:30 38° ENE 00:37:30 38° ENE
Cosmos 1805 3.8 00:35:21 10° N 00:38:48 52° ENE 00:38:48 52° ENE
Cosmos 1500 Rocket 4.4 00:35:58 10° NNW 00:39:12 39° NW 00:39:12 39° NW
Cosmos 1733 4.3 00:37:21 10° NNW 00:39:33 35° NNW 00:39:33 35° NNW
NOSS 3-1 (C) 4.1 00:33:41 10° NW 00:41:01 82° NE 00:49:56 10° SE
Cosmos 923 Rocket 4.1 00:40:34 57° W 00:41:06 60° WNW 00:46:21 10° NNE
Cosmos 1805 Rocket 4.1 00:37:42 10° NNW 00:41:03 46° NW 00:41:03 46° NW
H-2A R/B 4.0 00:38:15 10° N 00:41:39 47° NW 00:41:39 47° NW
Lacrosse 5 4.1 00:38:08 10° NW 00:42:16 24° N 00:46:23 10° ENE
BREEZE-M DEB (TANK) 4.3 00:41:45 45° SSE 00:42:28 48° SE 00:53:20 10° ENE
Meteor 1-11 Rocket 3.9 00:37:19 10° NNW 00:42:35 48° W 00:42:35 48° W
COSMOS 2441 4.4 00:39:30 10° NNE 00:44:23 71° ESE 00:45:17 56° SSE
Cosmos 1666 Rocket 4.1 00:42:18 10° N 00:46:42 56° ENE 00:48:05 38° SE
ATLAS 3B R/B 3.7 00:40:16 10° NW 00:47:57 56° NE 00:55:34 10° ESE
MSX 3.8 00:48:14 10° N 00:53:59 71° WNW 00:55:32 49° SW
Cosmos 2026 Rocket 4.0 00:53:06 45° SSW 00:55:14 78° W 01:01:40 10° N
Cosmos 1371 Rocket 3.9 00:53:16 10° NNW 00:58:30 66° WSW 00:59:42 50° SSW
Cosmos 1656 Rocket 4.1 00:53:28 10° NNW 00:58:50 58° ENE 01:04:10 10° SE
Cosmos 1092 Rocket 3.9 00:58:01 45° SSW 01:00:00 72° W 01:06:11 10° N
Gbstr 26 Del rocket 4.2 00:57:32 16° WNW 01:00:35 37° N 01:04:14 10° ENE
Cosmos 2237 Rocket 3.0 00:59:39 32° W 01:01:10 38° NW 01:06:29 10° NNE
Cosmos 2369 Rocket 3.0 00:57:19 10° NNW 01:02:47 51° ENE 01:08:13 10° SE
IDEFIX/ARIANE 42P 2.9 00:57:55 10° N 01:02:54 48° WNW 01:03:55 42° WSW
Cosmos 1328 Rocket 3.7 01:04:12 45° SSE 01:05:27 69° E 01:09:52 10° NNE
USA 267 3.1 01:00:07 10° SE 01:06:39 80° SW 01:13:12 10° NW
CZ-2C R/B 3.1 01:03:26 10° NNE 01:08:47 85° WNW 01:10:56 39° SSW
CZ-2D R/B 2.3 01:03:33 10° N 01:08:51 57° WNW 01:10:23 42° WSW
Cosmos 1626 2.4 01:09:30 48° ESE 01:09:47 50° E 01:12:59 10° NNE
Cosmos 1151 Rocket 3.4 01:10:36 44° W 01:10:47 44° WNW 01:14:58 10° N
Cosmos 2297 3.8 01:05:34 10° NNW 01:11:21 78° ENE 01:17:05 10° SSE
Cosmos 921 Rocket 3.0 01:11:48 56° WSW 01:12:24 63° WNW 01:16:47 10° NNE
Cosmos 1975 2.6 01:11:04 10° NNW 01:14:56 69° W 01:15:11 66° SW
USA 308 3.7 01:14:03 30° NW 01:15:02 36° NNW 01:18:41 10° NE
Cosmos 1633 Rocket 2.9 01:12:01 10° N 01:16:23 86° W 01:18:04 37° S
AQUA 3.7 01:11:38 10° NNE 01:16:24 81° WNW 01:17:56 43° SSW
SAR-Lupe-1 3.9 01:15:42 10° NNE 01:19:19 87° W 01:19:45 67° SSW
Resurs 1-4 Rocket 2.7 01:15:46 10° N 01:20:44 42° WNW 01:22:17 34° WSW
SAR-Lupe-4 3.4 01:19:58 10° N 01:23:33 72° WNW 01:23:58 63° SW
Cosmos 494 Rocket 3.9 01:22:02 37° SSW 01:24:09 90° NW 01:29:19 10° NNE
Meteor 2-4 Rocket 3.6 01:22:14 35° SSW 01:24:36 72° WNW 01:30:16 10° N
Cosmos 1943 4.3 01:21:57 15° S 01:26:10 39° ESE 01:31:25 10° NE
BREEZE-M DEB (TANK) 2.8 01:27:27 30° NW 01:27:40 31° NNW 01:29:33 10° NE
Cosmos 1766 3.3 01:26:32 10° N 01:30:14 68° E 01:32:42 19° SSE
FENGYUN 3A 3.7 01:24:58 10° N 01:30:20 63° WNW 01:32:48 32° SW
Cosmos 1048 Rocket 4.0 01:29:21 28° SSW 01:32:11 80° ESE 01:37:26 10° NNE
Cosmos 2278 Rocket 4.3 01:32:28 10° WNW 01:32:30 10° WNW 01:32:30 10° WNW
UNK 3.6 01:32:03 19° S 01:35:18 75° WSW 01:39:57 10° NNW
Meteor 2-12 Rocket 4.4 01:32:14 23° SSW 01:36:12 82° W 01:42:19 10° N
EO 1 Delta rocket 3.8 01:32:16 10° N 01:36:56 82° W 01:40:07 23° SSW
IRAS Rocket 4.4 01:34:18 10° N 01:39:49 60° WNW 01:42:48 27° SW
USA 290 3.7 01:38:35 10° NW 01:40:17 24° WNW 01:40:17 24° WNW
CZ-2C R/B 3.6 01:37:27 10° NNE 01:42:23 43° E 01:47:11 10° S
ADEOS II 2.7 01:40:07 10° N 01:45:01 41° WNW 01:47:24 26° WSW
Meteor 1-28 Rocket 4.3 01:49:06 25° W 01:49:06 25° W 01:51:51 10° NW
Cosmos 1943 Rocket 3.9 01:49:37 10° WNW 01:51:51 15° W 01:51:51 15° W
Cosmos 2266 Rocket 3.9 01:47:39 11° S 01:53:27 86° E 01:59:31 10° N
IRS-1D 4.5 01:48:33 10° NNE 01:53:33 47° E 01:58:35 10° S
USA 306 4.4 01:51:38 15° S 01:53:38 22° SE 01:56:31 10° E
ATLAS 2AS CENTAUR R/B 3.4 01:49:36 20° WSW 01:54:34 48° NW 02:01:26 10° NNE
CZ-4 R/B 3.8 01:51:06 10° NNE 01:55:50 85° ESE 01:59:42 15° SSW
Cosmos 1110 Rocket 3.9 01:50:56 10° NNW 01:56:13 73° WSW 02:01:29 10° SSE
Cosmos 1707 3.3 01:52:47 11° S 01:56:14 52° E 01:59:50 10° NNE
S3M 3.9 01:51:36 10° N 01:57:49 83° W 02:04:06 10° S
SL-08 ROCKET BODY 4.5 01:51:59 10° S 01:57:55 81° E 02:04:01 10° N
ATLAS 5 CENTAUR R/B 2.9 01:53:25 10° WNW 01:57:59 30° WSW 02:03:24 10° S
SL-16 R/B 2.8 01:54:58 22° WSW 01:58:10 42° NW 02:03:33 10° NNE
Cosmos 1842 3.1 01:57:28 17° S 02:00:19 83° E 02:04:06 10° N
CZ-2C R/B 3.9 02:00:14 19° WSW 02:01:10 20° W 02:05:03 10° NW
GEOS 3 Rocket 4.3 01:57:30 10° S 02:02:14 32° WSW 02:06:59 10° NW
Cosmos 1340 Rocket 4.5 02:01:32 17° W 02:02:22 18° WNW 02:05:06 10° NNW
Cosmos 1452 Rocket 3.5 01:59:22 10° NNW 02:04:32 60° WSW 02:09:40 10° S
SL-16 R/B 3.1 02:00:25 16° SSW 02:04:41 35° W 02:10:19 10° NNW
YAOGAN 6 3.0 02:02:48 10° NNE 02:06:04 54° E 02:09:19 10° S
Cosmos 1515 Rocket 3.7 02:03:19 19° SSW 02:06:24 59° WNW 02:10:47 10° N
ALOS 2.9 02:03:11 10° N 02:07:31 40° WNW 02:10:17 19° SW
Envisat 3.0 02:05:26 10° NNE 02:10:32 83° WNW 02:15:36 10° SSW
Cosmos 1869 Rocket 3.9 02:06:14 10° N 02:10:33 66° E 02:14:50 10° SSE
Cosmos 1470 Rocket 4.2 02:07:38 10° NNW 02:11:42 36° W 02:15:02 14° SSW
NOSS 3-1 (A) 4.2 02:06:41 10° NW 02:14:03 60° WSW 02:22:50 10° SSE
USA 215 4.2 02:08:42 10° NE 02:14:46 42° NNW 02:20:49 10° W
Cosmos 1331 Rocket 4.2 02:16:22 10° NNW 02:21:28 48° WSW 02:26:29 10° S
USA 229 DEB 4.2 02:16:24 10° NW 02:23:52 79° NE 02:31:58 10° SE
USA 229 4.2 02:16:31 10° NW 02:23:57 78° NE 02:32:02 10° SE
Meteor 1-13 Rocket 4.4 02:19:16 10° S 02:25:02 85° E 02:30:58 10° NNE
METEOR-M 4.2 02:19:59 10° N 02:25:16 62° WNW 02:30:30 10° SSW
Cosmos 2228 Rocket 4.4 02:21:36 10° SSE 02:25:42 41° E 02:29:50 10° NNE
Lacrosse 5 3.3 02:21:35 10° NW 02:26:24 39° NNE 02:31:11 10° E
Cosmos 1674 3.1 02:28:15 14° SW 02:30:47 36° WNW 02:34:00 10° N
Orbus 7S? 3.6 02:31:03 10° SSW 02:34:06 39° SE 02:36:39 10° ENE
Meteor 1-15 Rocket 4.4 02:29:12 10° N 02:35:08 83° E 02:40:56 10° SSE
DMSP B5D2-2 4.0 02:30:09 10° S 02:35:20 73° WSW 02:40:33 10° NNW
CRYOSAT 2 4.4 02:30:55 10° N 02:35:46 68° W 02:40:36 10° SSW
NOAA 11 4.3 02:30:56 10° N 02:36:18 61° WNW 02:41:41 10° SSW
Cosmos 1908 3.0 02:34:29 10° NNW 02:38:04 60° W 02:41:37 10° S
Cosmos 1655 Rocket 4.1 02:32:21 10° SSW 02:38:30 63° WNW 02:44:43 10° N
Cosmos 1933 Rocket 4.1 02:34:34 10° NNW 02:38:32 35° W 02:42:29 10° SSW
ATLAS 3B R/B 3.3 02:31:21 10° NW 02:38:39 44° WSW 02:45:51 10° S
Cosmos 1733 Rocket 4.1 02:36:48 10° N 02:41:02 50° ENE 02:45:13 10° SSE
Cosmos 1470 3.4 02:39:17 10° NNW 02:42:44 34° W 02:46:10 10° SSW
Cosmos 2315 Rocket 4.1 02:37:23 10° NNW 02:43:26 56° W 02:49:27 10° SSW
USA 305 2.7 02:44:27 10° SSW 02:45:49 23° SE 02:47:29 10° ENE
Cosmos 2369 Rocket 3.1 02:41:54 10° NW 02:46:28 26° WSW 02:51:00 10° SSW
ISS -3.3 02:44:10 10° SW 02:47:26 55° SE 02:50:42 10° ENE
Gbstr 26 Del rocket 2.8 02:43:29 10° WNW 02:47:31 82° NNE 02:51:15 10° ESE
USA 267 4.2 02:45:17 10° S 02:50:18 23° SW 02:55:21 10° WNW
Cosmos 1300 3.4 02:49:54 10° N 02:53:27 54° E 02:56:56 10° SSE
USA 276 3.5 02:52:11 10° SSW 02:54:34 26° SE 02:57:05 10° E
Cosmos 1441 Rocket 3.4 02:52:38 10° N 02:56:24 76° E 03:00:06 10° SSE
Cosmos 614 Rocket 4.0 02:51:19 10° SSW 02:56:25 87° WNW 03:01:36 10° NNE
Cosmos 44 3.2 02:56:55 10° NW 03:01:49 65° WSW 03:06:23 10° SSE
